Regional Weather Roundup
Issued by NWS

Home | Current Version | Previous Version | Graphics & Text | Print | Product List | Glossary On
Versions: 1 2 3 4 5 6 7 8 9 10 11 12 13 14 15 16 17 18 19 20 21 22 23 24 25 26 27 28 29 30 31 32 33 34 35 36 37 38 39 40 41 42 43 44 45 46 47 48 49 50
000
ASUS44 KFWD 250903
RWRTX
NORTH TEXAS HOURLY WEATHER ROUNDUP
NATIONAL WEATHER SERVICE FORT WORTH TX
400 AM CDT FRI APR 25 2014

NOTE: "FAIR" INDICATES FEW OR NO CLOUDS BELOW 12,000 FEET WITH NO
SIGNIFICANT WEATHER AND/OR OBSTRUCTIONS TO VISIBILITY.

TXZ118-119-251000-
DALLAS/FORT WORTH METROPLEX

CITY           SKY/WX    TMP DP  RH WIND       PRES   REMARKS
DFW AIRPORT    PTCLDY    60  39  45 E7        29.94S
DALLAS LOVE    CLEAR     61  40  45 E8        29.94S
FTW MEACHAM    CLEAR     61  45  55 E3        29.95R
DAL-EXECUTIVE  CLEAR     56  45  66 SE3       29.95R
FTW-ALLIANCE   PTCLDY    48  45  89 CALM      29.95R
FTW-NAS-JRB    CLEAR     61  50  67 NW3       29.99S
FTW-SPINKS     CLEAR     49  47  90 CALM      29.97R
ARLINGTON      CLEAR     53  46  77 NE6       29.95S
GRAND PRAIRIE  CLEAR     60  43  53 E3        29.97R
ADDISON        CLEAR     64  37  36 NE8       29.97R
MESQUITE       CLEAR     57  43  60 CALM      29.95S
LANCASTER      CLEAR     53  46  77 CALM      29.96S
$$

TXZ091>094-102>105-117-120-121-131>134-251000-
NORTH CENTRAL TEXAS

CITY           SKY/WX    TMP DP  RH WIND       PRES   REMARKS
SHRMAN/DENISON CLEAR     55  38  53 E6        29.97S
BOWIE          CLEAR     55  41  59 CALM      29.95S
BRIDGEPORT     CLEAR     47  42  82 CALM      29.97S
DECATUR        CLEAR     55  41  58 E7        29.95S
DENTON         CLEAR     52  47  83 CALM      29.95F
MCKINNEY       CLEAR     53  46  77 CALM      29.96R
GREENVILLE     CLEAR     50  45  81 CALM      29.97R
ROCKWALL       CLEAR     58  43  57 NE8       29.94S
TERRELL        CLEAR     54  47  77 NE5       29.96S
WAXAHACHIE     CLEAR     58  42  55 CALM      29.97R
CLEBURNE       CLEAR     61  43  51 E3        29.98R
GRANBURY       CLEAR     52  46  79 CALM      29.97S
$$

TXZ083>090-098>101-113>116-127>130-139>142-154-155-251000-
WESTERN NORTH TEXAS

CITY           SKY/WX    TMP DP  RH WIND       PRES   REMARKS
WICHITA FALLS  CLEAR     53  41  63 SE6       29.94S
WF-KICKAPOO    CLEAR     54  42  62 SE5       29.95S
VERNON         CLEAR     54  41  62 CALM      29.95R
ABILENE        CLEAR     56  40  55 S6        29.96S
ABILENE-DYESS  CLEAR     49  35  58 S7        29.95F
BRECKENRIDGE   CLEAR     57  40  52 SE8       29.95S
GRAHAM         CLEAR     57  38  50 CALM      29.95R
MINERAL WELLS  CLEAR     54  43  66 CALM      29.95R
STEPHENVILLE   CLEAR     59  42  52 CALM      29.99R
COMANCHE       CLEAR     60  39  45 SE3       29.97S
BROWNWOOD      PTCLDY    46  41  81 CALM      29.97R
COLEMAN        CLEAR     51  40  66 CALM      29.98R
BRADY          CLEAR     59  36  41 SE3       29.97R
$$

TXZ143>147-156>162-174-175-251000-
CENTRAL TEXAS

CITY           SKY/WX    TMP DP  RH WIND       PRES   REMARKS
WACO           CLEAR     53  45  74 NE7       29.94S
WACO-MCGREGOR  CLEAR     48  41  76 CALM      29.97R
HILLSBORO      CLEAR     61  44  52 NE10      29.95R
CORSICANA        N/A     60  44  55 NE7       29.95S
HEARNE         CLEAR     53  51  92 CALM      29.95S
CAMERON        CLEAR     59  49  70 CALM      29.94S
TEMPLE         CLEAR     55  41  58 NE6       29.97S
KILLEEN        CLEAR     63  43  48 NE7       29.95R
KILLEEN-SKYLRK CLEAR     61  36  39 NE6       29.93S
HAMILTON       CLEAR     60  41  50 CALM      29.97R
LAMPASAS       CLEAR     55  45  68 CALM      29.95R
$$

TXZ095>097-106>112-122>126-135>138-148>153-164>167-251000-
EAST TEXAS

CITY           SKY/WX    TMP DP  RH WIND       PRES   REMARKS
PARIS          CLEAR     55  39  54 NE5       29.97R
SULPHUR SPRNGS CLEAR     56  44  65 CALM      29.99R
CLARKSVILLE    CLEAR     56  42  59 CALM      29.98R
MOUNT PLEASANT CLEAR     58  42  55 N6        29.98R
MINEOLA        CLEAR     54  46  76 CALM      29.97R
TYLER          CLEAR     57  45  64 NE6       29.95S
LONGVIEW       CLEAR     57  45  64 CALM      29.95R
ATHENS         CLEAR     61  43  51 N3        29.94R
PALESTINE      CLEAR     65  42  41 NE8       29.96R
JACKSONVILLE   CLEAR     61  42  49 NE5       29.97R
NACOGDOCHES    CLEAR     55  50  82 NE3       29.95S
LUFKIN         CLEAR     62  59  90 N6        29.94S
$$

SUPPLEMENTAL OBSERVATIONS (CENTRAL)

CITY           SKY/WX    TMP DP  RH WIND       PRES   REMARKS
$$

SUPPLEMENTAL OBSERVATIONS (WEST)

CITY           SKY/WX    TMP DP  RH WIND       PRES   REMARKS
$$

SUPPLEMENTAL OBSERVATIONS (EAST)

CITY           SKY/WX    TMP DP  RH WIND       PRES   REMARKS
$$

SUPPLEMENTAL OBSERVATIONS ARE A COLLECTION OF AUTOMATED INSTRUMENTS
THAT ARE MAINTAINED BY A VARIETY OF FEDERAL AND STATE AGENCIES.
CERTAIN ELEMENTS...SUCH AS HUMIDITY VALUES AND SUSTAINED WIND
SPEEDS...MAY BE APPROXIMATED.




USA.gov is the U.S. government's official web portal to all federal, state and local government web resources and services.